Probability
0 0 0 0 0 0 0 0 0 0 0 0 0 0 0 0 0 0 0 0 0 0 0 0 0 0 0 0 0 0 0 0 0 0 0 0 0 0 0 0 0 0 0 0
0 0 0 0 0 0 0 0 0 0 0 0 0 0 0 0 0 0 0 0 0 0 0 0 0 0 0 0 0 0 0 0 0 0 0 0 0 0 0 0 0 0 0 0
0 0 0 0 0 0 0 0 0 0 0 0 0 0 0 0 0 0 0 0 0 0 0 0 0 0 0 0 0 0 0 0 0 0 0 0 0 0 0 0 0 0 0 0
0 0 0 0 0 0 0 0 0 0 0 0 0 0 0 0 0 0 0 0 0 0 0 0 0 0 0 0 0 0 0 0 0 0 0 0 0 0 0 0 0 0 0 0
0 0 0 0 0 0 0 0 0 0 0 0 0 0 0 0 0 0 0 0 0 0 0 0 0 0 0 0 0 0 0 0 0 0 0 0 0 0 0 0 0 0 0 0
0 0 0 0 0 0 0 0 0 0 0 0 0 0 0 0 0 0 0 0 0 0 0 0 0 0 0 0 0 0 0 0 0 0 0 0 0 0 0 0 0 0 0 0
0 0 0 0 0 0 0 0 0 0 0 0 0 0 0 0 0 0 0 0 0 0 0 0 0 0 0 0 0 0 0 0 0 0 0 0 0 0 0 0 0 0 0 0
0 0 0 0 0 0 0 0 0 0 0 0 0 0 0 0 0 0 0 0 0 0 0 0 0 0 0 0 0 0 0 0 0 0 0 0 0 0 0 0 0 0 0 0
0 0 0 0 0 0 0 0 0 0 0 0 0 0 0 0 0 0 0 0 0 0 0 0 0 0 0 0 0 0 0 0 0 0 0 0 0 0 0 0 0 0 0 0
0 0 0 0 0 0 0 0 0 0 0 0 0 0 0 0 0 0 0 0 0 0 0 0 0 0 0 0 0 0 0 0 0 0 0 0 0 0 0 0 0 0 0 0
0 0 0 0 0 0 0 0 0 0 0 0 0 0 0 0 0 0 0 0 0 0 0 0 0 0 0 0 0 0 0 0 0 0 0 0 0 0 0 0 0 0 0 0
0 0 0 0 0 0 0 0 0 0 0 0 0 0 0 0 0 0 0 0 0 0 0 0 0 0 0 0 0 0 0 0 0 0 0 0 0 0 0 0 0 0 0 0
0 0 0 0 0 0 0 0 0 0 0 0 0 0 0 0 0 0 0 0 0 0 0 0 0 0 0 0 0 0 0 0 0 0 0 0 0 0 0 0 0 0 0 0
0 0 0 0 0 0 0 0 0 0 0 0 0 0 0 0 0 0 0 0 0 0 0 0 0 0 0 0 0 0 0 0 0 0 0 0 0 0 0 0 0 0 0 0
0 0 0 0 0 0 0 0 0 0 0 0 0 0 0 0 0 0 0 0 0 0 0 0 0 0 0 0 0 0 0 0 0 0 0 0 0 0 0 0 0 0 0 0
0 0 0 0 0 0 0 0 0 0 0 0 0 0 0 0 0 0 0 0 0 0 0 0 0 0 0 0 0 0 0 0 0 0 0 0 0 0 0 0 0 0 0 0
0 0 0 0 0 0 0 0 0 0 0 0 0 0 0 0 0 0 0 0 0 0 0 0 0 0 0 0 0 0 0 0 0 0 0 0 0 0 0 0 0 0 0 0
0 0 0 0 0 0 0 0 0 0 0 0 0 0 0 0 0 0 0 0 0 0 0 0 0 0 0 0 0 0 0 0 0 0 0 0 0 0 0 0 0 0 0 0
0 0 0 0 0 0 0 0 0 0 0 0 0 0 0 0 0 0 0 0 0 0 0 0 0 0 0 0 0 0 0 0 0 0 0 0 0 0 0 0 0 0 0 0
0 0 0 0 0 0 0 0 0 0 0 0 0 0 0 0 0 0 0 0 0 0 0 0 0 0 0 0 0 0 0 0 0 0 0 0 0 0 0 0 0 0 0 0
0 0 0 0 0 0 0 0 0 0 0 0 0 0 0 0 0 0 0 0 0 0 0 0 0 0 0 0 0 0 0 0 0 0 0 0 0 0 0 0 0 0 0 0
0 0 0 0 0 0 0 0 0 0 0 0 0 0 0 0 0 0 0 0 0 0 0 0 0 0 0 0 0 0 0 0 0 0 0 0 0 0 0 0 0 0 0 0
0 0 0 0 0 0 0 0 0 0 0 0 0 0 0 0 0 0 0 0 0 0 0 0 0 0 0 0 0 0 0 0 0 0 0 0 0 0 0 0 0 0 0 0
0 0 0 0 0 0 0 0 0 0 0 0 0 0 0 0 0 0 0 0 0 0 0 0 0 0 0 0 0 0 0 0 0 0 0 0 0 0 0 0 0 0 0 0
0 0 0 0 0 0 0 0 0 0 0 0 0 0 0 0 0 0 0 0 0 0 0 0 0 0 0 0 0 0 0 0 0 0 0 0 0 0 0 0 0 0 0 0
0 0 0 0 0 0 0 0 0 0 0 0 0 0 0 0 0 0 0 0 0 0 0 0 0 0 0 0 0 0 0 0 0 0 0 0 0 0 0 0 0 0 0 0
Wind_Speed
2 2 4 8 8 5 2 4 7 8 4 6 11 18 23 15 10 14 15 13 15 18 14 10 13 13 12 13 15 16 17 14 11 7 7 6 6 5 5 6 8 8 8 8
3 5 8 3 3 3 3 4 7 7 3 5 8 16 19 14 12 16 16 16 16 14 9 10 12 14 17 17 17 17 18 17 15 12 8 5 4 4 5 5 7 9 9 9
6 6 1 3 3 3 4 6 6 6 4 3 7 13 10 8 5 7 10 11 10 14 15 11 12 15 16 18 21 19 20 19 17 13 7 4 3 2 4 6 7 9 10 9
6 5 2 3 4 5 7 6 5 3 3 6 3 10 12 8 9 8 10 10 13 13 13 11 12 13 18 21 17 17 18 18 16 16 14 13 12 11 11 7 7 8 9 9
6 3 4 6 6 7 7 0 0 1 2 5 3 5 14 7 9 11 10 11 13 12 13 13 14 16 17 15 14 16 15 17 17 18 19 18 14 9 5 5 8 8 8 9
7 3 4 5 0 2 2 4 4 4 3 5 5 5 12 8 9 9 8 8 9 10 10 12 11 9 10 10 12 14 16 18 18 19 19 20 18 12 9 9 9 8 6 7
6 3 2 2 2 2 2 3 5 6 3 7 2 4 14 16 9 9 12 12 9 7 8 9 10 11 12 13 15 15 17 19 18 19 20 20 19 16 16 14 13 10 8 8
4 7 3 3 5 4 3 5 5 4 5 7 3 9 14 14 9 8 10 10 11 10 8 9 10 10 11 12 13 15 18 19 18 20 20 18 16 13 12 13 11 12 10 10
4 6 1 1 2 6 4 4 3 3 3 5 8 10 15 11 8 6 7 8 10 10 9 9 8 8 9 10 13 16 17 17 17 19 17 16 16 15 14 12 12 9 9 8
6 5 3 0 1 0 2 5 4 2 3 7 8 7 8 10 11 10 9 10 10 9 9 9 8 8 8 9 9 10 14 16 15 15 16 15 16 16 14 12 13 12 11 10
4 4 4 2 5 6 4 3 4 3 3 4 7 10 9 10 11 10 12 11 10 11 11 11 9 7 7 8 9 11 12 13 13 15 15 15 15 15 14 14 15 13 12 12
3 4 4 7 3 3 6 6 8 4 6 5 5 14 11 10 10 9 12 12 11 11 12 11 10 8 6 7 7 9 11 13 14 12 13 15 13 13 15 16 15 13 13 13
4 3 4 7 2 1 2 4 5 3 2 5 6 15 7 8 10 10 11 13 12 12 12 10 8 7 7 6 7 8 10 11 10 10 13 14 15 16 18 17 15 14 14 13
5 4 7 9 8 3 5 4 5 6 5 8 14 21 21 20 18 17 15 13 12 11 10 9 9 8 6 6 6 8 9 9 9 11 13 16 18 18 17 16 15 16 15 14
4 4 7 9 9 6 7 10 9 13 14 15 20 21 27 21 15 13 12 12 12 12 11 10 9 8 7 5 6 7 9 9 10 12 15 18 16 15 14 15 15 14 14 14
2 4 3 7 8 9 9 13 18 18 16 16 21 25 21 13 8 9 10 10 10 11 11 10 10 9 8 7 7 7 9 9 11 14 16 14 13 14 15 15 14 13 13 12
5 6 4 8 5 5 10 15 18 12 10 11 14 15 8 9 11 10 10 8 8 9 10 10 10 9 9 8 7 8 8 8 11 14 14 13 13 14 14 14 14 14 14 12
8 6 4 4 1 12 11 6 9 11 13 12 11 11 10 10 11 9 7 5 8 9 9 10 9 9 9 7 6 6 6 7 10 12 13 12 13 14 12 13 14 14 12 12
7 7 4 3 6 12 10 9 7 7 9 7 7 8 8 7 7 6 4 3 7 8 9 9 9 9 9 9 7 6 6 7 9 12 13 12 12 13 13 15 15 13 12 12
3 4 5 4 6 11 11 6 1 1 8 4 2 4 6 6 8 8 8 9 11 10 9 9 8 8 9 9 6 6 8 8 12 13 12 11 12 14 16 16 14 11 11 12
3 3 6 7 9 13 11 4 1 4 7 2 2 5 6 5 7 10 12 12 11 11 11 10 9 8 9 8 6 8 9 11 12 10 9 9 11 13 13 11 10 10 11 11
8 6 8 7 8 13 7 4 6 8 4 5 7 7 8 10 11 11 11 11 10 11 10 9 9 10 10 8 6 9 12 11 9 8 9 10 10 10 10 10 10 10 11 11
9 10 8 12 12 7 3 7 6 5 9 10 9 9 10 11 12 12 10 10 10 10 10 9 9 10 11 8 6 10 12 10 8 8 9 8 8 9 9 10 11 10 10 10
7 6 6 9 12 11 11 10 11 12 13 10 10 10 10 11 11 10 9 9 9 9 9 8 9 11 12 11 9 10 11 9 9 10 9 7 7 8 9 9 10 10 11 11
8 5 8 16 14 12 11 12 12 11 10 11 10 9 7 8 8 8 8 9 9 9 8 8 9 11 13 12 12 11 10 9 9 9 8 6 7 7 8 10 10 12 12 13
10 13 16 21 14 13 13 8 10 11 10 9 8 7 6 5 6 8 8 8 9 10 10 10 11 12 13 12 13 12 9 8 8 9 7 5 5 6 7 8 8 18 17 21
Wind_Direction
42 68 232 227 210 216 223 236 262 263 215 195 241 259 269 266 230 243 245 240 238 240 238 209 205 202 198 198 200 201 200 196 182 176 181 184 202 200 200 202 198 193 192 189
18 264 242 216 181 198 225 261 270 281 210 211 273 273 269 262 238 234 238 236 235 239 236 211 200 198 201 203 203 203 203 198 194 195 180 172 171 188 198 197 199 197 194 192
221 248 186 162 182 206 238 225 247 268 315 264 305 294 284 286 249 251 239 236 233 230 235 220 203 204 204 207 206 205 204 201 198 188 164 143 131 144 177 197 202 200 195 193
250 263 202 213 232 193 261 242 230 274 320 299 347 300 291 286 296 266 247 234 235 233 232 225 207 206 209 213 207 205 202 201 196 186 187 186 193 199 198 190 191 190 193 193
266 230 202 226 235 188 228 360 120 305 247 300 265 246 284 311 286 272 255 238 234 230 224 225 217 214 214 210 202 202 200 201 196 194 198 200 207 204 173 173 182 190 194 197
249 249 206 215 146 163 139 62 52 53 70 287 240 196 281 266 247 277 287 268 251 242 230 231 227 215 213 200 197 196 199 204 199 198 202 205 207 192 177 185 189 194 195 200
313 293 237 153 118 41 97 72 349 336 340 260 199 213 255 259 251 252 275 288 290 274 249 240 229 217 214 202 200 197 200 206 201 200 205 209 209 199 198 193 195 192 194 202
302 300 232 194 191 186 179 155 179 254 264 287 274 239 257 269 280 267 269 281 291 283 265 251 239 225 219 209 201 198 203 207 201 203 208 209 206 203 205 200 194 196 200 202
210 270 303 171 193 152 161 206 180 168 279 280 275 288 297 292 314 315 300 296 291 290 286 271 263 243 227 213 206 204 205 207 204 205 206 207 206 206 205 199 197 197 197 194
180 261 294 34 93 343 173 160 111 150 274 283 288 277 260 293 303 314 318 313 305 304 296 284 269 251 234 221 211 203 207 211 208 204 205 207 207 208 204 196 199 199 197 193
178 216 294 308 209 204 151 164 164 171 199 224 278 269 238 248 270 288 297 298 295 295 291 284 275 259 236 217 203 203 207 209 208 207 206 209 206 205 203 204 204 200 196 194
164 141 264 264 237 176 179 191 161 186 244 208 245 269 257 257 273 279 284 291 292 286 284 283 282 276 253 231 214 210 209 212 213 206 205 211 208 202 205 209 206 199 197 197
138 121 339 335 349 65 230 215 194 186 188 208 228 268 276 292 294 291 290 293 295 298 299 301 298 286 267 244 223 217 217 219 212 203 207 210 210 208 210 210 204 199 198 197
133 172 199 229 246 243 233 229 195 186 223 242 235 262 283 288 294 302 307 306 304 303 305 308 307 299 282 254 229 223 225 218 210 207 212 216 216 214 213 210 204 201 198 196
130 229 240 253 267 268 246 246 227 216 225 241 263 267 276 286 298 303 306 311 315 317 319 319 314 308 301 277 245 230 228 216 209 212 218 223 220 216 214 210 206 201 198 197
149 229 256 264 255 253 255 249 247 246 242 244 263 272 274 291 304 302 306 312 317 321 320 318 315 311 304 286 262 242 233 219 209 218 226 225 218 215 214 211 205 200 198 193
196 200 242 266 267 297 262 235 235 230 220 216 244 260 303 322 315 310 310 316 316 313 310 309 308 303 298 291 272 255 242 219 214 225 231 225 219 219 215 209 205 202 196 189
182 180 219 276 318 239 244 237 227 236 249 238 251 275 295 289 289 283 272 298 320 314 309 306 303 302 299 292 283 268 249 224 224 231 233 226 218 220 214 209 209 204 195 190
184 171 204 225 252 271 286 268 222 217 268 251 241 272 290 299 314 292 262 303 305 298 293 289 287 287 290 293 290 279 262 242 237 239 237 227 217 216 212 212 209 200 192 191
115 161 188 200 226 253 247 250 219 167 277 266 220 294 306 340 336 300 306 314 306 299 294 293 295 297 297 299 302 284 273 257 250 248 244 230 216 215 216 215 208 198 193 194
147 175 202 219 238 262 258 272 156 214 250 308 308 306 302 287 261 276 296 301 299 299 299 300 302 301 297 303 305 287 280 269 265 259 248 233 221 219 219 213 202 193 193 190
198 202 209 202 222 255 249 166 202 235 288 310 308 301 293 287 286 292 297 299 304 307 306 308 309 305 302 303 294 285 282 279 275 262 250 238 223 216 212 206 200 191 190 190
212 207 207 205 226 246 226 220 249 285 293 294 290 293 294 293 295 299 300 303 305 304 304 306 305 304 305 304 294 287 290 292 284 269 256 244 225 212 203 200 197 190 191 194
236 219 232 255 258 261 267 270 274 276 277 279 281 286 287 287 292 297 300 302 304 303 305 308 311 309 308 308 301 285 289 291 283 274 266 245 223 214 204 201 198 197 197 198
232 232 246 261 270 274 258 259 269 278 286 292 291 288 286 290 295 297 301 301 302 303 303 305 304 302 301 304 302 298 295 292 284 277 268 248 226 214 209 209 209 207 210 205
224 237 252 263 267 270 280 276 282 286 286 287 291 297 300 295 293 298 297 296 299 302 303 304 301 299 301 303 301 301 297 289 282 281 270 248 229 216 210 211 219 225 220 223